Location: Burbank
(38.7788°N, 114.0429°W)
Time: 21:22:33
(UTC+00:00)

S-56A Canister/Altair - Pass Details

Date: 19 May 2026
Orbit: 632 x 2484 km, 38.9° (Epoch: 8 June)

Event Time Altitude Azimuth Distance (km) Brightness Sun altitude
Rises 01:58:10 0° 229° (SW) 3,707 11.5 7.5°
Reaches altitude 10° 02:01:19 10° 221° (SW) 2,515 10.5 6.9°
Maximum altitude 02:06:24 35° 156° (SSE) 1,140 8.2 6.0°
Drops below altitude 10° 02:10:34 10° 90° (E) 2,044 9.2 5.2°
Sets 02:12:52 0° 80° (E) 2,919 10.0 4.8°
